Terminal Aerodrome Forecast
Issued by NWS Charleston, WV

Current Version | Previous Version | Graphics & Text | Print | Product List | Glossary On
Versions: 1 2 3 4 5 6 7 8 9 10 11 12 13 14 15 16 17 18 19 20 21 22 23 24 25
000
FTUS41 KRLX 290801 AAC
TAFEKN
TAF AMD
KEKN 290801Z 2908/3006 20005KT P6SM VCTS OVC090CB
     FM291200 23005KT P6SM SCT090
     FM291700 25008G18KT P6SM FEW200=

USA.gov is the U.S. government's official web portal to all federal, state and local government web resources and services.